Madison, WI

8:34 PM CST on November 16, 2019 (GMT -0600)
Dane County Regional-Truax

Weather History for KMSN - June, 2019

Change the Weather History Date:

Thursday, June 6, 2019

  Actual Average Record
Temperature  
Mean Temperature 71 °F 64 °F  
Max Temperature 84 °F 75 °F 94 °F (1952)
Min Temperature 57 °F 53 °F 36 °F (1982)
Degree Days  
Heating Degree Days 0 3  
Month to date heating degree days 14 24  
Since 1 June heating degree days 14 24  
Since 1 July heating degree days 7473 7297  
Cooling Degree Days 6 2  
Month to date cooling degree days 13 12  
Year to date cooling degree days 33 42  
Since 1 June cooling degree days 13 12  
Growing Degree Days 20 (Base 50)    
Moisture  
Dew Point 58 °F    
Average Humidity 67    
Maximum Humidity 93    
Minimum Humidity 40    
Precipitation  
Precipitation 0.00 in 0.15 in 1.36 in (1930)
Month to date precipitation 1.03 0.89  
Year to date precipitation 16.84 12.72  
Snow  
Snow 0.00 in 0.00 in 0.00 in (2018)
Month to date snowfall 0.0 0.0  
Since 1 June snowfall 0.0 0.0  
Since 1 July snowfall 57.2 50.9  
Snow Depth 0.00 in    
Sea Level Pressure  
Sea Level Pressure 29.88 in    
Wind  
Wind Speed 3 mph (ESE)    
Max Wind Speed 13 mph    
Max Gust Speed 16 mph    
Visibility 8 miles    
Events      
T = Trace of Precipitation, MM = Missing Value Source: NWS Daily Summary

Daily Weather History Graph

Daily Weather History Graph

Search for Another Location

Airport or City:

Astronomy

Jun. 06, 2019 Rise Set
Actual Time 5:18 AM CDT 8:33 PM CDT
Civil Twilight 4:43 AM CDT 9:08 PM CDT
Nautical Twilight 3:58 AM CDT 9:54 PM CDT
Astronomical Twilight 3:03 AM CDT 10:49 PM CDT
Moon 8:27 AM CDT (6/6) 11:50 PM CDT (6/6)
Length of Visible Light 16h 25m
Length of Day
15h 15m
Waxing Crescent, 14% of the Moon is Illuminated
Jun 6
Waxing Crescent
Jun 10
First Quarter
Jun 17
Full
Jun 25
Last Quarter
Jul 2
New

Hourly Weather History & Observations

Time (CDT) Temp. Heat Index Dew Point Humidity Pressure Visibility Wind Dir Wind Speed Gust Speed Precip Events Conditions
12:53 AM 62.1 °F - 59.0 °F 90% 29.84 in 6.0 mi North - - N/A   Partly Cloudy
1:23 AM 61.0 °F - 57.9 °F 90% 29.87 in 6.0 mi ESE 6.9 mph - N/A   Mostly Cloudy
1:51 AM 60.8 °F - 57.2 °F 88% 29.87 in 7.0 mi SE 8.1 mph - N/A   Scattered Clouds
1:53 AM 61.0 °F - 57.0 °F 87% 29.86 in 7.0 mi SSE 8.1 mph - N/A   Partly Cloudy
2:48 AM 60.8 °F - 57.2 °F 88% 29.86 in 6.0 mi SE 4.6 mph - N/A   Mostly Cloudy
2:53 AM 60.1 °F - 57.0 °F 90% 29.85 in 6.0 mi SE 5.8 mph - N/A   Overcast
3:35 AM 60.1 °F - 57.0 °F 90% 29.85 in 6.0 mi East 4.6 mph - N/A   Partly Cloudy
3:53 AM 59.0 °F - 55.9 °F 90% 29.84 in 6.0 mi Calm Calm - N/A   Clear
4:53 AM 59.0 °F - 55.0 °F 87% 29.86 in 7.0 mi SE 3.5 mph - N/A   Clear
5:53 AM 57.0 °F - 55.0 °F 93% 29.87 in 5.0 mi Calm Calm - N/A   Mostly Cloudy
6:53 AM 61.0 °F - 55.9 °F 83% 29.89 in 7.0 mi ESE 3.5 mph - N/A   Mostly Cloudy
7:53 AM 64.0 °F - 57.0 °F 78% 29.89 in 8.0 mi East 3.5 mph - N/A   Mostly Cloudy
8:53 AM 66.9 °F - 57.9 °F 73% 29.90 in 10.0 mi Variable 3.5 mph - N/A   Mostly Cloudy
9:53 AM 69.1 °F - 60.1 °F 73% 29.90 in 10.0 mi Calm Calm - N/A   Mostly Cloudy
10:53 AM 73.0 °F - 61.0 °F 66% 29.89 in 10.0 mi Calm Calm - N/A   Scattered Clouds
11:53 AM 75.9 °F - 64.0 °F 67% 29.89 in 10.0 mi East 4.6 mph - N/A   Mostly Cloudy
12:53 PM 79.0 °F - 63.0 °F 58% 29.88 in 10.0 mi Variable 3.5 mph - N/A   Mostly Cloudy
1:53 PM 80.1 °F 80.9 °F 60.1 °F 50% 29.89 in 10.0 mi Variable 3.5 mph - N/A   Mostly Cloudy
2:53 PM 79.0 °F - 61.0 °F 54% 29.88 in 10.0 mi Variable 3.5 mph - N/A   Mostly Cloudy
3:53 PM 82.9 °F 82.6 °F 57.9 °F 42% 29.87 in 10.0 mi Calm Calm - N/A   Mostly Cloudy
4:53 PM 82.9 °F 82.6 °F 57.9 °F 42% 29.87 in 10.0 mi NNE 3.5 mph - N/A   Mostly Cloudy
5:53 PM 84.0 °F 83.3 °F 57.0 °F 40% 29.86 in 10.0 mi Calm Calm - N/A   Mostly Cloudy
6:53 PM 82.0 °F 82.0 °F 57.9 °F 44% 29.87 in 10.0 mi Calm Calm - N/A   Mostly Cloudy
7:53 PM 77.0 °F - 57.0 °F 50% 29.88 in 10.0 mi East 6.9 mph - N/A   Mostly Cloudy
8:53 PM 73.0 °F - 62.1 °F 68% 29.89 in 10.0 mi ESE 8.1 mph - N/A   Mostly Cloudy
9:53 PM 70.0 °F - 60.1 °F 71% 29.91 in 10.0 mi ESE 8.1 mph - N/A   Mostly Cloudy
10:53 PM 66.9 °F - 57.9 °F 73% 29.93 in 10.0 mi ESE 6.9 mph - N/A   Mostly Cloudy
11:53 PM 64.0 °F - 55.9 °F 75% 29.93 in 10.0 mi ESE 5.8 mph - N/A   Clear